Overview Statistics Trail Chart Weather Telemetry Raw packets
 

This is the latest recevied weather packets stored in our database for station/object K9MWD. If no packets are shown the sender has not sent any weather packets the latest 10 day(s).

<< 81 82 83 84 85 86 87 >>
Time Temp. Humidity Pressure Rain* Wind** Luminosity Snow
1788041504 38.89° C 31% 1014 hPa 0 mm - 427 W/m² -
1788041199 39.44° C 31% 1013.9 hPa 0 mm - 454 W/m² -
1788040898 38.89° C 31% 1013.9 hPa 0 mm - 473 W/m² -
1788040605 38.89° C 31% 1014.1 hPa 0 mm - 473 W/m² -
1788040293 38.89° C 31% 1014.2 hPa 0 mm - 491 W/m² -
1788039992 38.33° C 31% 1014.1 hPa 0 mm - 508 W/m² -
1788039688 38.33° C 32% 1014.2 hPa 0 mm - 540 W/m² -
1788039383 38.89° C 30% 1014.3 hPa 0 mm - 544 W/m² -
1788039079 38.33° C 31% 1014.2 hPa 0 mm - 564 W/m² -
1788038774 38.33° C 32% 1014.4 hPa 0 mm - 126 W/m² -
1788038468 38.89° C 31% 1014.5 hPa 0 mm - 219 W/m² -
1788038168 39.44° C 31% 1014.4 hPa 0 mm - 602 W/m² -
1788037868 38.89° C 31% 1014.5 hPa 0 mm - 626 W/m² -
1788037562 38.89° C 31% 1014.6 hPa 0 mm - 645 W/m² -
1788037257 37.78° C 33% 1014.6 hPa 0 mm - 660 W/m² -
1788036956 37.78° C 35% 1014.8 hPa 0 mm - 688 W/m² -
1788036653 37.22° C 35% 1015.2 hPa 0 mm - 633 W/m² -
1788036348 36.67° C 36% 1015.2 hPa 0 mm - 132 W/m² -
1788036043 37.22° C 35% 1015.3 hPa 0 mm - 142 W/m² -
1788035743 38.33° C 34% 1015.4 hPa 0 mm - 155 W/m² -
1788035438 39.44° C 33% 1015.4 hPa 0 mm - 171 W/m² -
1788035142 38.33° C 34% 1015.5 hPa 0 mm - 769 W/m² -
1788034829 38.33° C 34% 1015.6 hPa 0 mm - 757 W/m² -
1788034525 38.33° C 35% 1015.6 hPa 0 mm - 707 W/m² -
1788034221 38.89° C 34% 1015.7 hPa 0 mm - 764 W/m² -

* Rain latest hour (hover to see other rain measurements)
** Current wind speed in m/s (hover to see current wind gust speed)